Location: Fuglau
(48.6333°N, 15.5500°E)
Time: 09:52:22
(UTC+00:00)

Gbstr 26 Del rocket - Pass Details

Date: 27 February 2020
Orbit: 493 x 1264 km, 51.8° (Epoch: 09 April)

Event Time Altitude Azimuth Distance (km) Brightness Sun altitude
Rises 18:55:28 0° 257° (WSW) 2,705 7.4 -23.4°
Reaches altitude 10° 18:57:31 10° 260° (W) 1,881 6.4 -23.8°
Maximum altitude 19:01:46 73° 345° (NNW) 682 3.2 -24.4°
Enters shadow 19:02:08 68° 24° (NNE) 707 3.2 -24.5°
